Date String (YYYY-MM-DD hh:mm:ss) UTC,Instrument flags,absolute air pressure of the measurement (hPa),sample flow rate (lpm),inlet stack bypass flow (lpm),air temperature of the measurement (°C),ambient temperature measured by the external sensor (°C),aerosol sample conditioner tube jacket temperature (°C),OPC LED temperature (°C),internal box temperature (°C),relative humidity of the measurement (%),span deviation,mass concentration of particles derived from Lorenz-Mie calculation of OPC scattering (μg/m³),mass concentration of particles derived from Lorenz-Mie calculation of OPC scattering (μg/m³),mass concentration of particles derived from Lorenz-Mie calculation of OPC scattering (μg/m³)
DateTimeUTC,F1_M11,P_M11,Q1_M11,Q2_M11,T1_M11,T2_M11,T3_M11,T4_M11,T5_M11,U1_M11,ZSPAN_M11,X0_M11,X2_M11,X1_M11
2023-06-15 00:00:00,SystemResetWarning,0824.4,5.00,000.00,029.5,026.0,000.0,038.0,030.9,27.1,0000.0,0008.56,0003.59,0003.06
2023-06-15 00:01:00,SystemResetWarning,0824.4,5.00,000.00,029.4,026.4,000.0,038.0,030.9,27.0,0000.0,0008.72,0003.60,0003.07
2023-06-15 00:02:00,SystemResetWarning,0824.4,5.01,000.00,029.5,026.8,000.0,038.0,031.0,27.5,0000.0,0008.27,0003.62,0003.07
2023-06-15 00:03:00,SystemResetWarning,0824.4,4.99,000.00,029.5,027.1,000.0,038.0,031.0,27.4,0000.0,0007.46,0003.64,0003.09
2023-06-15 00:04:00,SystemResetWarning,0824.4,4.99,000.00,029.5,027.4,000.0,038.0,031.1,28.4,0000.0,0007.40,0003.66,0003.10
2023-06-15 00:05:00,SystemResetWarning,0824.4,5.00,000.00,029.5,027.7,000.0,038.0,031.1,28.5,0000.0,0007.22,0003.63,0003.10
2023-06-15 00:06:00,SystemResetWarning,0824.4,5.01,000.00,029.6,027.9,000.0,038.0,031.2,27.6,0000.0,0007.17,0003.63,0003.10
2023-06-15 00:07:00,SystemResetWarning,0824.4,5.01,000.00,029.6,028.0,000.0,038.0,031.3,25.2,0000.0,0007.43,0003.66,0003.11
2023-06-15 00:08:00,SystemResetWarning,0824.4,4.99,000.00,029.6,028.1,000.0,038.1,031.3,25.3,0000.0,0007.58,0003.69,0003.12
2023-06-15 00:09:00,SystemResetWarning,0824.4,4.98,000.00,029.7,026.6,000.0,038.0,031.3,26.1,0000.0,0007.46,0003.69,0003.13
2023-06-15 00:10:00,SystemResetWarning,0824.3,5.02,000.00,029.6,025.3,000.0,038.0,031.2,26.8,0000.0,0007.53,0003.68,0003.14
2023-06-15 00:11:00,SystemResetWarning,0824.4,5.00,000.00,029.6,025.3,000.0,038.0,031.0,26.5,0000.0,0007.48,0003.69,0003.14
2023-06-15 00:12:00,SystemResetWarning,0824.4,4.99,000.00,029.5,025.6,000.0,038.0,030.9,26.3,0000.0,0007.37,0003.70,0003.14
2023-06-15 00:13:00,SystemResetWarning,0824.3,5.01,000.00,029.4,026.1,000.0,038.0,030.9,26.7,0000.0,0007.39,0003.71,0003.15
2023-06-15 00:14:00,SystemResetWarning,0824.3,4.99,000.00,029.4,026.5,000.0,038.0,030.9,27.6,0000.0,0007.36,0003.72,0003.17
2023-06-15 00:15:00,SystemResetWarning,0824.3,4.99,000.00,029.5,026.9,000.0,038.0,031.0,26.7,0000.0,0007.43,0003.72,0003.18
2023-06-15 00:16:00,SystemResetWarning,0824.3,5.00,000.00,029.5,027.2,000.0,038.0,031.0,25.6,0000.0,0007.60,0003.76,0003.18
2023-06-15 00:17:00,SystemResetWarning,0824.4,5.00,000.00,029.5,027.5,000.0,038.0,031.1,26.2,0000.0,0007.80,0003.79,0003.19
2023-06-15 00:18:00,SystemResetWarning,0824.4,5.01,000.00,029.5,027.7,000.0,038.0,031.1,26.3,0000.0,0008.54,0003.78,0003.18
2023-06-15 00:19:00,SystemResetWarning,0824.3,5.01,000.00,029.6,027.9,000.0,038.0,031.2,26.4,0000.0,0008.56,0003.79,0003.17
2023-06-15 00:20:00,SystemResetWarning,0824.4,5.00,000.00,029.6,028.0,000.0,038.1,031.3,26.1,0000.0,0008.51,0003.78,0003.16
2023-06-15 00:21:00,SystemResetWarning,0824.3,5.00,000.00,029.6,028.0,000.0,038.1,031.3,25.8,0000.0,0008.43,0003.78,0003.15
2023-06-15 00:22:00,SystemResetWarning,0824.4,4.99,000.00,029.7,026.3,000.0,038.0,031.2,25.1,0000.0,0008.29,0003.75,0003.14
2023-06-15 00:23:00,SystemResetWarning,0824.4,5.01,000.00,029.6,025.3,000.0,038.0,031.2,24.9,0000.0,0008.25,0003.73,0003.14
2023-06-15 00:24:00,SystemResetWarning,0824.3,5.01,000.00,029.6,025.4,000.0,038.0,031.0,24.6,0000.0,0008.17,0003.72,0003.13
2023-06-15 00:25:00,SystemResetWarning,0824.4,5.00,000.00,029.5,025.8,000.0,038.0,030.9,25.5,0000.0,0008.14,0003.69,0003.12
2023-06-15 00:26:00,SystemResetWarning,0824.4,4.99,000.00,029.5,026.2,000.0,038.0,030.9,24.3,0000.0,0008.10,0003.66,0003.10
2023-06-15 00:27:00,SystemResetWarning,0824.4,5.00,000.00,029.5,026.6,000.0,038.0,030.9,23.9,0000.0,0008.49,0003.62,0003.10
2023-06-15 00:28:00,SystemResetWarning,0824.4,5.01,000.00,029.5,027.0,000.0,038.0,031.0,24.2,0000.0,0008.41,0003.61,0003.10
2023-06-15 00:29:00,SystemResetWarning,0824.4,4.99,000.00,029.5,027.3,000.0,038.0,031.1,24.2,0000.0,0008.07,0003.60,0003.10
2023-06-15 00:30:00,SystemResetWarning,0824.4,4.99,000.00,029.5,027.5,000.0,038.0,031.1,26.4,0000.0,0008.12,0003.60,0003.10
2023-06-15 00:31:00,SystemResetWarning,0824.4,4.99,000.00,029.6,027.8,000.0,038.0,031.2,28.3,0000.0,0008.51,0003.58,0003.10
2023-06-15 00:32:00,SystemResetWarning,0824.4,5.01,000.00,029.6,027.9,000.0,038.0,031.2,28.4,0000.0,0008.73,0003.57,0003.11
2023-06-15 00:33:00,SystemResetWarning,0824.4,5.01,000.00,029.6,028.1,000.0,038.1,031.3,27.9,0000.0,0008.68,0003.56,0003.11
2023-06-15 00:34:00,SystemResetWarning,0824.4,4.99,000.00,029.7,026.7,000.0,038.0,031.3,29.0,0000.0,0008.78,0003.58,0003.11
2023-06-15 00:35:00,SystemResetWarning,0824.3,5.00,000.00,029.6,025.3,000.0,038.0,031.2,28.9,0000.0,0009.03,0003.63,0003.12
2023-06-15 00:36:00,SystemResetWarning,0824.3,5.01,000.00,029.6,025.3,000.0,038.0,031.1,30.0,0000.0,0009.10,0003.65,0003.11
2023-06-15 00:37:00,SystemResetWarning,0824.3,5.01,000.00,029.5,025.6,000.0,038.0,030.9,31.0,0000.0,0009.19,0003.65,0003.11
2023-06-15 00:38:00,SystemResetWarning,0824.3,5.00,000.00,029.4,026.0,000.0,038.0,030.9,29.4,0000.0,0009.10,0003.65,0003.10
2023-06-15 00:39:00,SystemResetWarning,0824.3,4.99,000.00,029.4,026.4,000.0,038.0,030.9,30.0,0000.0,0009.02,0003.66,0003.10
2023-06-15 00:40:00,SystemResetWarning,0824.4,5.00,000.00,029.5,026.8,000.0,038.0,031.0,31.5,0000.0,0008.85,0003.64,0003.10
2023-06-15 00:41:00,SystemResetWarning,0824.4,5.01,000.00,029.5,027.1,000.0,038.0,031.0,31.4,0000.0,0008.55,0003.61,0003.10
2023-06-15 00:42:00,SystemResetWarning,0824.4,5.00,000.00,029.5,027.4,000.0,038.0,031.1,31.3,0000.0,0008.21,0003.61,0003.10
2023-06-15 00:43:00,SystemResetWarning,0824.3,4.99,000.00,029.5,027.6,000.0,038.0,031.1,30.6,0000.0,0007.85,0003.61,0003.11
2023-06-15 00:44:00,SystemResetWarning,0824.3,4.99,000.00,029.5,027.8,000.0,038.0,031.2,29.9,0000.0,0008.41,0003.66,0003.12
2023-06-15 00:45:00,SystemResetWarning,0824.4,5.01,000.00,029.6,028.0,000.0,038.0,031.2,29.6,0000.0,0009.36,0003.68,0003.13
2023-06-15 00:46:00,SystemResetWarning,0824.4,5.01,000.00,029.6,028.1,000.0,038.1,031.3,29.2,0000.0,0009.37,0003.68,0003.13
2023-06-15 00:47:00,SystemResetWarning,0824.4,5.00,000.00,029.7,028.1,000.0,038.1,031.3,29.6,0000.0,0009.40,0003.66,0003.13
2023-06-15 00:48:00,SystemResetWarning,0824.3,4.99,000.00,029.7,026.5,000.0,038.0,031.3,29.0,0000.0,0009.51,0003.70,0003.15
2023-06-15 00:49:00,SystemResetWarning,0824.3,5.01,000.00,029.6,025.2,000.0,038.0,031.2,28.7,0000.0,0009.32,0003.74,0003.16
2023-06-15 00:50:00,SystemResetWarning,0824.3,5.01,000.00,029.6,025.2,000.0,038.0,031.0,27.6,0000.0,0009.68,0003.74,0003.17
2023-06-15 00:51:00,SystemResetWarning,0824.3,4.99,000.00,029.5,025.5,000.0,038.0,030.9,27.6,0000.0,0009.79,0003.74,0003.17
2023-06-15 00:52:00,SystemResetWarning,0824.3,5.01,000.00,029.5,026.0,000.0,038.0,030.9,27.8,0000.0,0009.92,0003.74,0003.17
2023-06-15 00:53:00,SystemResetWarning,0824.4,5.00,000.00,029.5,026.4,000.0,038.0,030.9,27.0,0000.0,0010.05,0003.76,0003.16
2023-06-15 00:54:00,SystemResetWarning,0824.4,5.00,000.00,029.5,026.8,000.0,038.0,031.0,26.3,0000.0,0009.98,0003.75,0003.16
2023-06-15 00:55:00,SystemResetWarning,0824.4,5.00,000.00,029.5,027.1,000.0,038.0,031.1,26.2,0000.0,0009.49,0003.73,0003.15
2023-06-15 00:56:00,SystemResetWarning,0824.4,4.99,000.00,029.5,027.4,000.0,038.0,031.1,25.6,0000.0,0009.00,0003.71,0003.14
2023-06-15 00:57:00,SystemResetWarning,0824.4,5.00,000.00,029.5,027.6,000.0,038.0,031.2,26.0,0000.0,0008.74,0003.65,0003.13
2023-06-15 00:58:00,SystemResetWarning,0824.4,5.00,000.00,029.6,027.8,000.0,038.0,031.2,25.2,0000.0,0008.64,0003.64,0003.12
2023-06-15 00:59:00,SystemResetWarning,0824.4,5.01,000.00,029.6,027.9,000.0,038.0,031.3,25.3,0000.0,0008.49,0003.63,0003.12
